Vancouver, WA

1:13 AM PDT on April 25, 2017 (GMT -0700)
Pearson

Weather History for KVUO - September, 2012

Change the Weather History Date:

Saturday, September 22, 2012

  Actual Average Record
Temperature  
Mean Temperature 60 °F 62 °F  
Max Temperature 71 °F 74 °F 94 °F (1952)
Min Temperature 48 °F 50 °F 35 °F (1971)
Degree Days  
Heating Degree Days 5    
Month to date heating degree days 38  
Since 1 July heating degree days 53  
Cooling Degree Days 0    
Month to date cooling degree days 46  
Year to date cooling degree days 393  
Growing Degree Days 9 (Base 50)    
Moisture  
Dew Point 47 °F    
Average Humidity 69    
Maximum Humidity 93    
Minimum Humidity 44    
Precipitation  
Precipitation 0.00 in 0.07 in 0.50 in (1948)
Month to date precipitation 0.04 0.91  
Year to date precipitation 26.73 22.74  
Snow  
Snow 0.00 in - - ()
Month to date snowfall 0.0  
Snow Depth 0.00 in    
Sea Level Pressure  
Sea Level Pressure 30.13 in    
Wind  
Wind Speed 2 mph (WNW)    
Max Wind Speed 13 mph    
Max Gust Speed 16 mph    
Visibility 10 miles    
Events      
T = Trace of Precipitation, MM = Missing Value Source: NWS Daily Summary

Daily Weather History Graph

Daily Weather History Graph

Search for Another Location

Airport or City:

Trip Planner

Search our weather history database for the weather conditions in past years. The results will help you decide how hot, cold, wet, or windy it might be!

Date:

Astronomy

Sep. 22, 2012 Rise Set
Actual Time 6:58 AM PDT 7:07 PM PDT
Civil Twilight 6:28 AM PDT 7:36 PM PDT
Nautical Twilight 5:53 AM PDT 8:11 PM PDT
Astronomical Twilight 5:18 AM PDT 8:46 PM PDT
Moon 2:38 PM PDT (9/22) No Moon Set
Length of Visible Light 13h 07m
Length of Day
12h 08m
Waxing Crescent, 50% of the Moon is Illuminated
Sep 22
Waxing Crescent
Sep 22
First Quarter
Sep 29
Full
Oct 8
Last Quarter
Oct 15
New

Hourly Weather History & Observations

Time (PDT) Temp. Dew Point Humidity Pressure Visibility Wind Dir Wind Speed Gust Speed Precip Events Conditions
12:53 AM 57.0 °F 50.0 °F 77% 30.14 in 10.0 mi NW 3.5 mph - N/A   Overcast
1:53 AM 55.9 °F 48.9 °F 77% 30.15 in 10.0 mi NW 3.5 mph - N/A   Overcast
2:53 AM 55.0 °F 48.9 °F 80% 30.15 in 10.0 mi Calm Calm - N/A   Clear
3:53 AM 52.0 °F 46.9 °F 83% 30.15 in 10.0 mi Calm Calm - N/A   Clear
4:53 AM 48.9 °F 46.0 °F 90% 30.16 in 10.0 mi Calm Calm - N/A   Mostly Cloudy
5:53 AM 50.0 °F 46.9 °F 89% 30.16 in 10.0 mi Calm Calm - N/A   Partly Cloudy
6:53 AM 48.9 °F 46.0 °F 90% 30.17 in 10.0 mi Calm Calm - N/A   Overcast
7:53 AM 48.0 °F 46.0 °F 93% 30.17 in 10.0 mi Calm Calm - N/A   Clear
8:53 AM 55.0 °F 50.0 °F 83% 30.18 in 10.0 mi Calm Calm - N/A   Mostly Cloudy
9:53 AM 60.1 °F 48.0 °F 64% 30.17 in 10.0 mi Calm Calm - N/A   Clear
10:53 AM 62.1 °F 43.0 °F 50% 30.17 in 10.0 mi Variable 5.8 mph - N/A   Clear
11:53 AM 64.0 °F 43.0 °F 46% 30.15 in 10.0 mi Variable 3.5 mph - N/A   Clear
1:53 PM 68.0 °F 46.0 °F 45% 30.13 in 10.0 mi WNW 8.1 mph - N/A   Clear
2:53 PM 69.1 °F 46.9 °F 45% 30.12 in 10.0 mi WSW 4.6 mph - N/A   Clear
3:53 PM 69.1 °F 46.9 °F 45% 30.11 in 10.0 mi Calm Calm - N/A   Clear
4:53 PM 70.0 °F 46.9 °F 44% 30.09 in 10.0 mi Variable 3.5 mph - N/A   Clear
5:53 PM 70.0 °F 46.9 °F 44% 30.09 in 10.0 mi WNW 5.8 mph - N/A   Clear
6:53 PM 69.1 °F 46.9 °F 45% 30.08 in 10.0 mi Calm Calm - N/A   Clear
7:53 PM 61.0 °F 46.9 °F 60% 30.09 in 10.0 mi Calm Calm - N/A   Clear
8:53 PM 63.0 °F 50.0 °F 63% 30.10 in 10.0 mi Calm Calm - N/A   Clear
9:53 PM 61.0 °F 48.9 °F 64% 30.10 in 10.0 mi Calm Calm - N/A   Clear
10:53 PM 57.0 °F 48.9 °F 74% 30.11 in 10.0 mi Calm Calm - N/A   Clear
11:53 PM 53.1 °F 48.0 °F 83% 30.11 in 10.0 mi Calm Calm - N/A   Clear